Terug naar catalogus

NIMBUS 2 DEB

ActiefLEO
NORAD 28201·DEBRIS·🇺🇸 United States

Gelanceerd May 15, 1966 vanaf Vandenberg Space Force Base

Loading…

Volgende Passages (komende 24 uur)

TLE

VersSource: Space-Track

Epoch: Sep 14, 2026, 07:24 UTC

1 28201U 66040P   26257.30856589  .00001874  00000-0  24445-2 0  9996
2 28201 100.2595 185.8529 0056336 102.7168  48.5123 13.62589844663359

Volg NIMBUS 2 DEB in realtime met AllMySat

Download on the App Store